Starlink 32915

operational
NORAD ID: 63152 Int'l Des: 2025-043 Owner: SPXS Country: US Constellation: starlink
LEOCIRCULAR

关于 Starlink 32915

正在加载描述...

实时位置

正在加载3D地球...

即将过境

高度历史

Altitude vs Time

uPlot chart will show altitude changes over time

两行轨道根数

1 63152U 25043W 25258.39273018 .00031793 00000-0 11583-2 0 9999
2 63152 42.9986 293.0352 0000992 128.0308 232.0633 15.27624630 30472
Epoch: Sep 15, 2025 • Age: 15 hours

当前状态

高度 481.2 km
速度 7.63 km/s
星下点 13.45°N, 95.87°E
发射日期 Mar 3, 2025
运行时间 0.5 years
类型 internet

技术详情

分类 Payload
质量 730.00 kg
干质量 700.00 kg
总质量 730.00 kg
长度 0.30 m
直径 4.10 m
跨度 29.00 m
形状 Box + pan
制造商 SPXS
平台类型 Starlink V2M
阶段状态 In Orbit
所有者/国家 SPXS/US

大型星座

Loading constellations...